sat.trackr.live / text

‹ back to catalog

STARLINK-36080

NORAD 66801 · 2025-278L

PAYLOAD ACTIVE UNKNOWN

§ Identity

Operator
Country
US
Launch date
2025-12-01
Launch site
AFETR
Launch vehicle
Mass (kg)
RCS (m²)

Purposes: comms

External: N2YO · Heavens-Above · Gunter

§ Orbital elements

Epoch: 2026-09-20T22:16:01.151904Z

Period
94.27 min
Inclination
43.0025°
Eccentricity
0.0001116
Mean motion
15.27589101 rev/d
Perigee alt
482.3 km
Apogee alt
483.8 km
Semi-major
6,861.2 km
B*
4.2336e-4
RAAN
92.1622°
Arg perigee
323.4166°
Mean anomaly
36.6609°
Rev number
4,506

§ Raw data

STARLINK-360801 66801U 25278L   26263.92779111  .00011409  00000+0  42336-3 0  99962 66801  43.0025  92.1622 0001116 323.4166  36.6609 15.27589101 45067

JSON: /api/v1/satellites/66801 · /tle

For live sub-satellite position, see the globe view (requires WebGL).

§ Visibility from observer

Set your observer location to see the next 7 days of passes ≥ 10°. The values pass through the URL so the page stays shareable.

No JS? Fill the form by hand. The geolocation button needs JavaScript.